Weather in Berezan

Ukraine / Kyiv Region     50°18′26″N   31°29′06″E
temp.,
°C
wind,
m/s
gust,
m/s
humid.,
%
clouds,
%
prec.,
mm/h
press.,
hPa
HPBL,
m
21 january, fri
fri2123:00−1sw51194100 0.9 1006439
02:00−1wsw6128966 1.0 1005481
05:00−3w61285100 0.0 1004651
08:00−5wsw7158799 0.0 1005717
11:00−2wsw81380100 0.0 10051068
14:00−2wsw91586100 0.1 10041112
17:00−2wsw9168689 0.1 1004885
20:00−2w81583100 0.1 1004823
22 january, sat
sat2223:00−2wsw7138799 0.0 1005822
02:00−3wsw6129394 0.3 1005595
05:00−3w4996100 0.3 1006412
08:00−3w5989100 0.5 1007484
11:00−3w588883 0.0 1009622
14:00−2wsw4783100 0.2 1009786
17:00−4wsw379376 0.1 1011240
20:00−4nw489593 0.5 1013469
23 january, sun
sun2323:00−7nw369643 0.1 1015126
02:00−8nw249879 0.1 101677
05:00−9n259641 0.0 1018100
08:00−10nne259649 0.0 102097
11:00−8nne359066 0.0 1023237
14:00−7nne458864 0.0 1024306
17:00−9n489594 0.0 1027192
20:00−9nne389681 0.1 1029190
24 january, mon
mon2423:00−10n489615 0.0 1030166
02:00−11n499596 0.0 1031184
05:00−10n51294100 0.0 1030264
08:00−9n71689100 0.0 1030421
11:00−7n71492100 0.1 1030482
14:00−6n61091100 0.2 1029467
17:00−7n5109387 0.1 1030378
20:00−8n499576 0.1 1031250
25 january, tue
tue2523:00−9n499675 0.0 1030225
02:00−11nnw489659 0.0 1030156
05:00−11nnw379581 0.0 1029167
08:00−12nnw379653 0.0 1029167
11:00−9nnw358959 0.0 1028224
14:00−7nw248767 0.0 1026283
17:00−9wnw229543 0.0 102512
20:00−11sw229613 0.0 102316